Location: Lecco
(45.8566°N, 9.3977°E)
Time: 04:48:58
(UTC+02:00)

Transit 4A - Pass Details

Date: 15 August 2020
Orbit: 863 x 982 km, 66.8° (Epoch: 23 September)

Event Time Altitude Azimuth Distance (km) Brightness Sun altitude
Rises 08:12:46 0° 169° (S) 3,477 11.0 17.9°
Reaches altitude 10° 08:15:44 10° 155° (SSE) 2,561 10.6 18.4°
Maximum altitude 08:20:12 23° 106° (ESE) 1,859 11.5 19.2°
Drops below altitude 10° 08:24:47 10° 57° (ENE) 2,637 11.4 19.9°
Sets 08:27:52 0° 43° (NE) 3,607 11.6 20.5°
